This is the latest recevied weather packets stored in our database for station/object KC5DAQ-29. If no packets are shown the sender has not sent any weather packets the latest 10 day(s).
| Time | Temp. | Humidity | Pressure | Rain* | Wind** | Luminosity | Snow |
|---|---|---|---|---|---|---|---|
| 1777661403 | 16.67° C | 100% | 1006.8 hPa | 4.32 mm | - | 9 W/m² | - |
| 1777661343 | 16.67° C | 100% | 1006.7 hPa | 4.57 mm | - | 9 W/m² | - |
| 1777661284 | 16.67° C | 100% | 1006.6 hPa | 4.32 mm | - | 11 W/m² | - |
| 1777661223 | 16.67° C | 100% | 1006.6 hPa | 4.32 mm | - | 11 W/m² | - |
| 1777661163 | 16.11° C | 100% | 1006.7 hPa | 4.06 mm | - | 7 W/m² | - |
| 1777661105 | 16.11° C | 100% | 1006.6 hPa | 4.06 mm | - | 7 W/m² | - |
| 1777661043 | 16.11° C | 100% | 1006.5 hPa | 4.06 mm | - | 7 W/m² | - |
| 1777660983 | 16.11° C | 100% | 1006.5 hPa | 4.06 mm | - | 9 W/m² | - |
| 1777660923 | 16.67° C | 100% | 1006.3 hPa | 3.81 mm | - | 9 W/m² | - |
| 1777660863 | 16.67° C | 100% | 1006.3 hPa | 3.81 mm | - | 9 W/m² | - |
| 1777660803 | 16.67° C | 100% | 1006.1 hPa | 3.81 mm | - | 9 W/m² | - |
| 1777660743 | 16.67° C | 100% | 1006 hPa | 2.54 mm | - | - | - |
| 1777660684 | 16.67° C | 100% | 1006.1 hPa | 2.54 mm | - | - | - |
| 1777660623 | 16.67° C | 100% | 1006 hPa | 2.54 mm | - | 14 W/m² | - |
| 1777660563 | 16.67° C | 100% | 1006.1 hPa | 2.54 mm | - | 14 W/m² | - |
| 1777660503 | 16.67° C | 100% | 1006.2 hPa | 2.54 mm | - | 14 W/m² | - |
| 1777660445 | 16.67° C | 100% | 1006.3 hPa | 2.54 mm | - | 14 W/m² | - |
| 1777660384 | 16.67° C | 100% | 1006.3 hPa | 2.54 mm | - | 14 W/m² | - |
| 1777660322 | 16.67° C | 100% | 1006.4 hPa | 2.54 mm | - | 14 W/m² | - |
| 1777660264 | 16.67° C | 100% | 1006.3 hPa | 2.54 mm | - | 14 W/m² | - |
| 1777660203 | 16.67° C | 100% | 1006.4 hPa | 2.29 mm | - | 14 W/m² | - |
| 1777660142 | 16.67° C | 100% | 1006.5 hPa | 2.54 mm | - | 14 W/m² | - |
| 1777660083 | 16.67° C | 100% | 1006.7 hPa | 2.54 mm | - | 14 W/m² | - |
| 1777660023 | 16.67° C | 100% | 1006.8 hPa | 2.54 mm | - | 16 W/m² | - |
| 1777659963 | 16.67° C | 100% | 1006.8 hPa | 2.29 mm | - | 16 W/m² | - |
* Rain latest hour (hover to see other rain measurements)
** Current wind speed in m/s (hover to see current wind gust speed)